Location: Fort Wayne
(41.1310°N, 85.1290°W)
Time: 04:12:03
(UTC-05:00)

Gbstr 26 Del rocket - Visible Passes

Search period start: 24 January 2017 00:00
Search period end: 03 February 2017 00:00
Orbit: 494 x 1266 km, 51.8° (Epoch: 22 January)

Date Brightness Start Highest point End Pass type
(mag) Time Alt. Az. Time Alt. Az. Time Alt. Az.
24 Jan 5.0 04:57:35 30° SE 04:57:43 30° SE 05:02:51 10° ENE visible
24 Jan 3.8 06:40:12 17° WSW 06:44:26 65° NNW 06:51:05 10° NE visible
25 Jan 4.9 04:54:07 36° ESE 04:54:07 36° ESE 04:58:47 10° ENE visible
25 Jan 3.9 06:36:44 21° W 06:40:16 56° NNW 06:46:50 10° NE visible
26 Jan 4.9 04:50:31 37° E 04:50:31 37° E 04:54:39 10° ENE visible
26 Jan 4.1 06:33:07 25° W 06:36:09 49° NNW 06:42:34 10° NE visible
27 Jan 5.0 04:46:48 35° ENE 04:46:48 35° ENE 04:50:28 10° ENE visible
27 Jan 4.3 06:29:23 26° WNW 06:32:02 43° NNW 06:38:20 10° NE visible
28 Jan 5.1 04:42:59 32° ENE 04:42:59 32° ENE 04:46:15 10° NE visible
28 Jan 4.4 06:25:34 27° WNW 06:27:57 39° NNW 06:34:06 10° NE visible
29 Jan 5.3 04:39:05 28° NE 04:39:05 28° NE 04:42:01 10° NE visible
29 Jan 4.6 06:21:40 26° NW 06:23:54 35° NNW 06:29:53 10° NE visible
30 Jan 5.5 04:35:08 26° NE 04:35:08 26° NE 04:37:45 10° NE visible
30 Jan 4.7 06:17:42 25° NW 06:19:51 33° N 06:25:43 10° NE visible
31 Jan 5.6 04:31:07 23° NE 04:31:07 23° NE 04:33:30 10° NE visible
31 Jan 4.8 06:13:42 24° NW 06:15:48 31° N 06:21:34 10° NE visible
01 Feb 5.7 04:27:06 21° NE 04:27:06 21° NE 04:29:14 10° NE visible
01 Feb 4.8 06:09:39 24° NW 06:11:46 30° N 06:17:27 10° ENE visible
02 Feb 5.8 04:23:01 20° NE 04:23:01 20° NE 04:24:58 10° NE visible
02 Feb 4.9 06:05:35 23° NW 06:07:43 29° N 06:13:23 10° ENE visible
